Retour au catalogue

DELTA 2 R/B(2)

ActifMEO
NORAD 34381·ROCKET BODY·🇺🇸 United States

Lancé Mar 7, 2009 depuis Cape Canaveral Space Force Station

Loading…

Prochains Passages (prochaines 24 heures)

TLE

PériméSource: Space-Track

Époque: Mar 7, 2009, 14:37 UTC

1 34381U 09011B   09066.60924429 +.00000005 +00000-0 +00000-0 0  9992
2 34381 028.5476 044.5104 2287097 107.5267 278.6464 07.34265542000032

Suivez DELTA 2 R/B(2) en temps réel avec AllMySat

Download on the App Store